Location: Palmerston North
(40.3500°S, 175.6170°E)
Time: 18:45:54
(UTC+13:00)

ISS - Pass Details

Date: 30 October 2019
Orbit: 412 x 421 km, 51.6° (Epoch: 12 November)

Event Time Altitude Azimuth Distance (km) Brightness Sun altitude
Rises 23:19:06 0° 234° (SW) 2,387 1.0 -30.9°
Reaches altitude 10° 23:21:13 10° 235° (SW) 1,519 -0.2 -31.1°
Enters shadow 23:21:21 11° 235° (SW) 1,465 -0.3 -31.1°
